• In Latvia
  • List of Countries
  • For 7 days
  • Water Temperature
  • Satellite Maps
  • Weather Map
  • Weather Widgets
  • user-avatar
    Login

    Hourly Weather Lagmon

    Today, 19 January, Friday

    Time Temperature Precipitation Wind Pressure Humidity
    00:00 +8°C° 0 mm 2 mps 729 mmHg 35%
    01:00 +7°C° 0 mm 2 mps 729 mmHg 36%
    02:00 +7°C° 0 mm 2 mps 729 mmHg 36%
    03:00 +7°C° 0 mm 2 mps 729 mmHg 36%
    04:00 +7°C° 0 mm 2 mps 728 mmHg 36%
    05:00 +7°C° 0 mm 2 mps 729 mmHg 37%
    06:00 +6°C° 0 mm 2 mps 729 mmHg 37%
    07:00 +6°C° 0 mm 2 mps 729 mmHg 37%
    08:00 +8°C° 0 mm 2 mps 729 mmHg 32%
    09:00 +12°C° 0 mm 2 mps 730 mmHg 28%
    10:00 +13°C° 0 mm 3 mps 730 mmHg 23%
    11:00 +15°C° 0 mm 4 mps 730 mmHg 20%
    12:00 +17°C° 0 mm 4 mps 730 mmHg 17%
    13:00 +19°C° 0 mm 5 mps 730 mmHg 14%
    14:00 +18°C° 0 mm 4 mps 730 mmHg 16%
    15:00 +18°C° 0 mm 4 mps 730 mmHg 17%
    16:00 +17°C° 0 mm 3 mps 730 mmHg 18%
    17:00 +16°C° 0 mm 3 mps 731 mmHg 20%
    18:00 +13°C° 0 mm 4 mps 731 mmHg 22%
    19:00 +12°C° 0 mm 5 mps 731 mmHg 24%
    20:00 +12°C° 0 mm 5 mps 731 mmHg 24%
    21:00 +12°C° 0 mm 5 mps 731 mmHg 23%
    22:00 +10°C° 0 mm 5 mps 731 mmHg 23%
    23:00 +10°C° 0 mm 5 mps 731 mmHg 23%

    Tomorrow, 20 January, Saturday

    Time Temperature Precipitation Wind Pressure Humidity
    00:00 +10°C° 0 mm 5 mps 730 mmHg 22%
    01:00 +10°C° 0 mm 5 mps 730 mmHg 22%
    02:00 +10°C° 0 mm 5 mps 730 mmHg 22%
    03:00 +10°C° 0 mm 5 mps 730 mmHg 22%
    04:00 +9°C° 0 mm 5 mps 730 mmHg 22%
    05:00 +10°C° 0 mm 4 mps 730 mmHg 22%
    06:00 +10°C° 0 mm 4 mps 729 mmHg 22%
    07:00 +10°C° 0 mm 4 mps 729 mmHg 22%
    08:00 +12°C° 0 mm 3 mps 729 mmHg 20%
    09:00 +15°C° 0 mm 2 mps 729 mmHg 18%
    10:00 +17°C° 0 mm 2 mps 730 mmHg 15%
    11:00 +18°C° 0 mm 2 mps 729 mmHg 14%
    12:00 +20°C° 0 mm 1 mps 729 mmHg 12%
    13:00 +22°C° 0 mm 1 mps 728 mmHg 10%
    14:00 +21°C° 0 mm 1 mps 728 mmHg 12%
    15:00 +19°C° 0 mm 2 mps 727 mmHg 14%
    16:00 +18°C° 0 mm 2 mps 727 mmHg 16%
    17:00 +17°C° 0 mm 2 mps 727 mmHg 17%
    18:00 +15°C° 0 mm 2 mps 727 mmHg 18%
    19:00 +14°C° 0 mm 2 mps 727 mmHg 19%
    20:00 +13°C° 0 mm 2 mps 727 mmHg 20%
    21:00 +13°C° 0 mm 2 mps 726 mmHg 20%
    22:00 +12°C° 0 mm 1 mps 726 mmHg 21%
    23:00 +11°C° 0 mm 1 mps 726 mmHg 21%

    Day after tomorrow, 21 January, Sunday

    Time Temperature Precipitation Wind Pressure Humidity
    00:00 +11°C° 0 mm 1 mps 726 mmHg 21%
    01:00 +10°C° 0 mm 1 mps 726 mmHg 22%
    02:00 +9°C° 0 mm 2 mps 726 mmHg 21%
    03:00 +9°C° 0 mm 2 mps 726 mmHg 21%
    04:00 +10°C° 0 mm 3 mps 726 mmHg 20%
    05:00 +9°C° 0 mm 3 mps 726 mmHg 20%
    06:00 +9°C° 0 mm 3 mps 726 mmHg 21%
    07:00 +9°C° 0 mm 3 mps 726 mmHg 21%
    08:00 +10°C° 0 mm 3 mps 727 mmHg 22%
    09:00 +11°C° 0 mm 4 mps 727 mmHg 22%
    10:00 +12°C° 0 mm 4 mps 728 mmHg 22%
    11:00 +13°C° 0 mm 4 mps 728 mmHg 23%
    12:00 +13°C° 0 mm 5 mps 727 mmHg 24%
    13:00 +14°C° 0 mm 5 mps 727 mmHg 24%
    14:00 +13°C° 0 mm 5 mps 727 mmHg 26%
    15:00 +13°C° 0 mm 4 mps 728 mmHg 28%
    16:00 +12°C° 0 mm 4 mps 728 mmHg 30%
    17:00 +11°C° 0 mm 3 mps 728 mmHg 33%
    18:00 +9°C° 0 mm 3 mps 729 mmHg 37%
    19:00 +8°C° 0 mm 2 mps 729 mmHg 40%
    20:00 +8°C° 0 mm 2 mps 729 mmHg 42%
    21:00 +7°C° 0 mm 2 mps 730 mmHg 43%
    22:00 +6°C° 0 mm 2 mps 730 mmHg 45%
    23:00 +6°C° 0 mm 2 mps 730 mmHg 47%

    22 January, Monday

    Time Temperature Precipitation Wind Pressure Humidity
    00:00 +5°C° 0 mm 2 mps 730 mmHg 49%
    01:00 +5°C° 0 mm 2 mps 730 mmHg 50%
    02:00 +5°C° 0 mm 2 mps 730 mmHg 52%
    03:00 +5°C° 0 mm 1 mps 730 mmHg 53%
    04:00 +5°C° 0 mm 1 mps 730 mmHg 54%
    05:00 +5°C° 0 mm 1 mps 730 mmHg 55%
    06:00 +5°C° 0 mm 1 mps 731 mmHg 56%
    07:00 +4°C° 0 mm 1 mps 731 mmHg 57%
    08:00 +5°C° 0 mm 2 mps 731 mmHg 52%
    09:00 +6°C° 0 mm 2 mps 731 mmHg 48%
    10:00 +7°C° 0 mm 2 mps 732 mmHg 43%
    11:00 +8°C° 0 mm 2 mps 731 mmHg 40%
    12:00 +9°C° 0 mm 2 mps 731 mmHg 37%
    13:00 +10°C° 0 mm 2 mps 731 mmHg 34%
    14:00 +10°C° 0 mm 2 mps 731 mmHg 34%
    15:00 +11°C° 0 mm 1 mps 731 mmHg 35%
    16:00 +10°C° 0 mm 0 mps 731 mmHg 35%
    17:00 +9°C° 0 mm 0 mps 731 mmHg 38%
    18:00 +8°C° 0 mm 0 mps 731 mmHg 42%
    19:00 +7°C° 0 mm 0 mps 731 mmHg 46%
    20:00 +6°C° 0 mm 0 mps 731 mmHg 47%
    21:00 +6°C° 0 mm 0 mps 730 mmHg 48%
    22:00 +5°C° 0 mm 0 mps 730 mmHg 48%
    23:00 +6°C° 0 mm 1 mps 730 mmHg 48%

    23 January, Tuesday

    Time Temperature Precipitation Wind Pressure Humidity
    00:00 +6°C° 0 mm 1 mps 730 mmHg 49%
    01:00 +6°C° 0 mm 1 mps 730 mmHg 49%
    02:00 +6°C° 0 mm 1 mps 729 mmHg 48%
    03:00 +6°C° 0 mm 1 mps 729 mmHg 47%
    04:00 +6°C° 0 mm 1 mps 729 mmHg 47%
    05:00 +6°C° 0 mm 1 mps 729 mmHg 46%
    06:00 +4°C° 0 mm 2 mps 729 mmHg 45%
    07:00 +4°C° 0 mm 2 mps 729 mmHg 44%
    08:00 +7°C° 0 mm 2 mps 729 mmHg 38%
    09:00 +9°C° 0 mm 2 mps 729 mmHg 31%
    10:00 +12°C° 0 mm 2 mps 729 mmHg 25%
    11:00 +14°C° 0 mm 2 mps 728 mmHg 22%
    12:00 +15°C° 0 mm 2 mps 728 mmHg 19%
    13:00 +16°C° 0 mm 2 mps 727 mmHg 17%
    14:00 +16°C° 0 mm 2 mps 727 mmHg 18%
    15:00 +16°C° 0 mm 2 mps 727 mmHg 19%
    16:00 +15°C° 0 mm 2 mps 727 mmHg 20%
    17:00 +13°C° 0 mm 3 mps 727 mmHg 22%
    18:00 +12°C° 0 mm 3 mps 727 mmHg 23%
    19:00 +11°C° 0 mm 3 mps 727 mmHg 25%
    20:00 +11°C° 0 mm 3 mps 726 mmHg 25%
    21:00 +11°C° 0 mm 3 mps 726 mmHg 25%
    22:00 +11°C° 0 mm 3 mps 726 mmHg 25%
    23:00 +11°C° 0 mm 3 mps 726 mmHg 25%

    24 January, Wednesday

    Time Temperature Precipitation Wind Pressure Humidity
    00:00 +10°C° 0 mm 2 mps 725 mmHg 25%
    01:00 +10°C° 0 mm 2 mps 725 mmHg 25%
    02:00 +10°C° 0 mm 2 mps 725 mmHg 24%
    03:00 +10°C° 0 mm 2 mps 725 mmHg 24%
    04:00 +10°C° 0 mm 2 mps 725 mmHg 24%
    05:00 +9°C° 0 mm 2 mps 725 mmHg 24%
    06:00 +9°C° 0 mm 2 mps 725 mmHg 24%
    07:00 +9°C° 0 mm 1 mps 725 mmHg 25%
    08:00 +12°C° 0 mm 2 mps 725 mmHg 22%
    09:00 +14°C° 0 mm 2 mps 726 mmHg 18%
    10:00 +16°C° 0 mm 2 mps 726 mmHg 15%
    11:00 +17°C° 0 mm 3 mps 726 mmHg 15%
    12:00 +18°C° 0 mm 4 mps 725 mmHg 14%
    13:00 +19°C° 0 mm 5 mps 725 mmHg 13%
    14:00 +19°C° 0 mm 4 mps 725 mmHg 15%
    15:00 +18°C° 0 mm 4 mps 725 mmHg 17%
    16:00 +18°C° 0 mm 3 mps 725 mmHg 20%
    17:00 +16°C° 0 mm 3 mps 725 mmHg 21%
    18:00 +14°C° 0 mm 3 mps 725 mmHg 22%
    19:00 +13°C° 0 mm 3 mps 726 mmHg 23%
    20:00 +13°C° 0 mm 3 mps 726 mmHg 24%
    21:00 +13°C° 0 mm 3 mps 726 mmHg 24%
    22:00 +12°C° 0 mm 3 mps 726 mmHg 25%
    23:00 +12°C° 0 mm 3 mps 726 mmHg 27%
    Show more